sat.trackr.live / text

‹ back to catalog

ASRTU-1 (AO-123)

NORAD 61781 · 2024-199AY

PAYLOAD ACTIVE UNKNOWN

§ Identity

Operator
Country
PRC
Launch date
2024-11-04
Launch site
VOSTO
Launch vehicle
Mass (kg)
RCS (m²)

Purposes: comms

External: N2YO · Heavens-Above · Gunter

§ Orbital elements

Epoch: 2026-05-25T03:51:31.341024Z

Period
93.79 min
Inclination
97.3036°
Eccentricity
0.0014962
Mean motion
15.35287987 rev/d
Perigee alt
449.8 km
Apogee alt
470.3 km
Semi-major
6,838.2 km
B*
2.1901e-4
RAAN
14.0416°
Arg perigee
38.0188°
Mean anomaly
322.2108°
Rev number
13,039

§ Raw data

ASRTU-1 (AO-123)1 61781U 24199AY  26145.16077941  .00007451  00000+0  21901-3 0  99932 61781  97.3036  14.0416 0014962  38.0188 322.2108 15.35287987130398

JSON: /api/v1/satellites/61781 · /tle

For live sub-satellite position, see the globe view (requires WebGL).

§ Visibility from observer

Set your observer location to see the next 7 days of passes ≥ 10°. The values pass through the URL so the page stays shareable.

No JS? Fill the form by hand. The geolocation button needs JavaScript.

§ Radio — SatNOGS DB

ModeDescriptionDownlinkUplink
QPSK Image download 10.460 GHz
BPSK Mode U - SSDV 436.210 MHz
BPSK Mode U - Telemetry 435.400 MHz
FM Mode V/U - FM Transceiver 435.400 MHz 145.850 MHz

4 transmitters · refreshed weekly from db.satnogs.org